TimeCST,TemperatureF,Dew PointF,Humidity,Sea Level PressureIn,VisibilityMPH,Wind Direction,Wind SpeedMPH,Gust SpeedMPH,PrecipitationIn,Events,Conditions,WindDirDegrees,DateUTC
12:11 AM,39.2,39.2,100,30.26,9.0,Calm,Calm,-,N/A,,Mostly Cloudy,0,2012-11-16 06:11:00
12:53 AM,42.1,41.0,96,30.26,9.0,Calm,Calm,-,N/A,,Overcast,0,2012-11-16 06:53:00
1:35 AM,44.6,42.8,93,30.26,10.0,Calm,Calm,-,N/A,,Overcast,0,2012-11-16 07:35:00
1:53 AM,45.0,42.1,90,30.25,10.0,Calm,Calm,-,N/A,,Overcast,0,2012-11-16 07:53:00
2:53 AM,46.0,43.0,89,30.25,10.0,NNE,4.6,-,N/A,,Overcast,30,2012-11-16 08:53:00
3:42 AM,46.4,42.8,87,30.25,10.0,North,4.6,-,N/A,,Overcast,10,2012-11-16 09:42:00
3:53 AM,46.0,43.0,89,30.25,10.0,NNE,4.6,-,N/A,,Overcast,30,2012-11-16 09:53:00
4:25 AM,46.4,42.8,87,30.25,9.0,ENE,4.6,-,N/A,,Overcast,60,2012-11-16 10:25:00
4:53 AM,46.0,44.1,93,30.25,9.0,NE,3.5,-,N/A,,Overcast,40,2012-11-16 10:53:00
5:53 AM,46.9,43.0,86,30.26,10.0,NE,6.9,-,N/A,,Overcast,50,2012-11-16 11:53:00
6:53 AM,46.9,44.1,90,30.28,10.0,ENE,4.6,-,N/A,,Overcast,60,2012-11-16 12:53:00
7:28 AM,46.4,44.6,93,30.29,10.0,East,4.6,-,N/A,,Overcast,90,2012-11-16 13:28:00
7:53 AM,48.0,44.1,86,30.30,10.0,East,3.5,-,N/A,,Overcast,100,2012-11-16 13:53:00
8:17 AM,48.2,44.6,87,30.31,9.0,ENE,6.9,-,N/A,,Overcast,70,2012-11-16 14:17:00
8:53 AM,48.9,44.1,83,30.31,10.0,ENE,6.9,-,N/A,,Overcast,70,2012-11-16 14:53:00
9:46 AM,50.0,44.6,82,30.31,10.0,ENE,3.5,-,N/A,,Overcast,70,2012-11-16 15:46:00
9:53 AM,52.0,45.0,77,30.31,10.0,Variable,3.5,-,N/A,,Overcast,0,2012-11-16 15:53:00
10:16 AM,51.8,44.6,76,30.31,10.0,NNE,8.1,-,N/A,,Overcast,30,2012-11-16 16:16:00
10:33 AM,55.4,44.6,67,30.30,10.0,NE,5.8,-,N/A,,Scattered Clouds,40,2012-11-16 16:33:00
10:53 AM,55.9,43.0,62,30.29,10.0,NNE,4.6,-,N/A,,Partly Cloudy,30,2012-11-16 16:53:00
11:53 AM,61.0,43.0,52,30.27,10.0,ENE,5.8,-,N/A,,Clear,60,2012-11-16 17:53:00
12:53 PM,62.1,42.1,48,30.23,10.0,ENE,8.1,-,N/A,,Clear,70,2012-11-16 18:53:00
1:53 PM,64.0,41.0,43,30.22,10.0,NE,10.4,-,N/A,,Clear,40,2012-11-16 19:53:00
2:53 PM,64.0,41.0,43,30.22,10.0,ENE,6.9,-,N/A,,Clear,60,2012-11-16 20:53:00
3:53 PM,62.1,41.0,46,30.22,10.0,NE,6.9,-,N/A,,Clear,50,2012-11-16 21:53:00
4:53 PM,55.9,42.1,60,30.24,10.0,North,4.6,-,N/A,,Clear,10,2012-11-16 22:53:00
5:53 PM,48.9,43.0,80,30.25,10.0,Calm,Calm,-,N/A,,Clear,0,2012-11-16 23:53:00
6:53 PM,46.9,42.1,83,30.27,10.0,Calm,Calm,-,N/A,,Clear,0,2012-11-17 00:53:00
7:53 PM,45.0,41.0,86,30.27,10.0,Calm,Calm,-,N/A,,Clear,0,2012-11-17 01:53:00
8:53 PM,42.1,39.9,92,30.29,10.0,Calm,Calm,-,N/A,,Clear,0,2012-11-17 02:53:00
9:53 PM,41.0,39.0,93,30.30,10.0,Calm,Calm,-,N/A,,Clear,0,2012-11-17 03:53:00
10:53 PM,39.0,37.0,93,30.30,10.0,Calm,Calm,-,N/A,,Clear,0,2012-11-17 04:53:00
11:53 PM,37.9,36.0,93,30.30,9.0,Calm,Calm,-,N/A,,Clear,0,2012-11-17 05:53:00